Preview of NWS' New Version of Forecast
This preview is not operational and should not be used for support decisions.

Regional Weather Roundup (RWR)

Issued by National Weather Service (NWS)

                            
000
ASUS44 KJAN 190010
RWRMS 

MISSISSIPPI HOURLY WEATHER ROUNDUP
NATIONAL WEATHER SERVICE JACKSON MS
700 PM CDT THU APR 18 2019

NOTE: "FAIR: INDICATES FEW OR NO CLOUDS BELOW 12,000 FEET WITH NO
SIGNIFICANT WEATHER AND/OR OBSTRUCTIONS TO VISIBILITY.

MSZ001>002-007>008-010>013-018>021-025>028-034>036-190100-
NORTHWEST MISSISSIPPI
  
CITY           SKY/WX    TMP DP  RH WIND       PRES   REMARKS
BATESVILLE       N/A     61  59  94 VRB3      29.52F                  
CLARKSDALE     PTCLDY    63  63 100 W8        29.59R                  
CLEVELAND      CLOUDY    61  61 100 W7        29.61R                  
GREENWOOD      FAIR      61  58  90 CALM      29.55R                  
6HR MIN TEMP:  60; 6HR MAX TEMP:  65; 6HR PCP:  1.36;                

GREENVILLE     CLOUDY    62  59  90 W9        29.62R                  
6HR MIN TEMP:  61; 6HR MAX TEMP:  64; 6HR PCP:  0.83;                

OLIVE BRANCH   MOCLDY    57  57 100 E12G20    29.48F                  
OXFORD         LGT RAIN  57  57 100 E15G26    29.52F                  
TUNICA           N/A     59  59 100 NW3       29.59S                  
WINONA         DRIZZLE   58  58 100 S3        29.56F                  
$$

MSZ003>006-009-014>017-022>024-029>033-037>039-190100-
NORTHEAST MISSISSIPPI
  
CITY           SKY/WX    TMP DP  RH WIND       PRES   REMARKS
ABERDEEN       RAIN      59  59 100 N10G17    29.69F                  
COLUMBUS AFB   HVY RAIN  61  59  93 N12       29.65F                  
6HR MIN TEMP:  61; 6HR MAX TEMP:  79; 6HR PCP:  2.27;                

CORINTH        RAIN      61  59  94 CALM      29.70S                  
GOLDN TRIANGLE RAIN      61  59  93 N13       29.67F                  
STARKVILLE     CLOUDY    59  59 100 NE12      29.64F                  
TUPELO         RAIN      61  58  90 NE12      29.64F                  
6HR MIN TEMP:  61; 6HR MAX TEMP:  73; 6HR PCP:  1.58;                

$$

MSZ040-058-190100-
CENTRAL MISSISSIPPI
  
CITY           SKY/WX    TMP DP  RH WIND       PRES   REMARKS
JACKSON INTL   CLOUDY    61  59  93 SE6       29.59F                  
6HR MIN TEMP:  61; 6HR MAX TEMP:  76; 6HR PCP:  1.59;                

JACKSON HAWKNS CLOUDY    61  61 100 S6        29.59F                  
6HR MIN TEMP:  61; 6HR MAX TEMP:  75; 6HR PCP:  2.06;                

MADISON        CLOUDY    59  59 100 SE3       29.59F                  
MERIDIAN KEY   CLOUDY    64  60  87 NE9       29.63F                  
6HR MIN TEMP:  64; 6HR MAX TEMP:  82; 6HR PCP:  2.15;                

MERIDIAN NAS   NOT AVBL                                               
RAYMOND        MOCLDY    61  61 100 SE6       29.60F                  
VICKSBURG VKS  CLOUDY    63  63 100 SW9       29.64R                  
$$

MSZ059>079-190100-
SOUTH MISSISSIPPI
  
CITY           SKY/WX    TMP DP  RH WIND       PRES   REMARKS
HATTIESBURG    CLOUDY    64  62  93 E8        29.64F                  
6HR MIN TEMP:  63; 6HR MAX TEMP:  76; 6HR PCP:  2.20;                

LAUREL         LGT RAIN  64  63  97 SE12      29.66R                  
MCCOMB         RAIN      63  61  93 CALM      29.64S FOG              
6HR MIN TEMP:  62; 6HR MAX TEMP:  71; 6HR PCP:  2.79;                

NATCHEZ        CLOUDY    62  60  93 SW5       29.64F                  
6HR MIN TEMP:  60; 6HR MAX TEMP:  69; 6HR PCP:  1.79;                

PINE BELT      RAIN      63  62  97 CALM      29.67R FOG              
6HR MIN TEMP:  63; 6HR MAX TEMP:  76; 6HR PCP:  1.68;                

$$

MSZ080>082-190100-
COASTAL MISSISSIPPI
  
CITY           SKY/WX    TMP DP  RH WIND       PRES   REMARKS
BAY ST LOUIS   MOCLDY    72  68  88 SE17G29   29.63R                  
BILOXI         LGT RAIN  72  66  83 S26G45    29.57F                  
6HR MIN TEMP:  71; 6HR MAX TEMP:  79; 6HR PCP:  0.67;                

PASCAGOULA     TSTM      71  67  87 S18G35    29.71F FOG              
GULFPORT       LGT RAIN  72  67  84 S18G39    29.57F                  
6HR MIN TEMP:  72; 6HR MAX TEMP:  79; 6HR PCP:  0.67;                

$$

LAZ007>009-015>016-023>026-190100-
NORTHEAST LOUISIANA
  
CITY           SKY/WX    TMP DP  RH WIND       PRES   REMARKS
BASTROP        CLOUDY    62  62  98 W3        29.65S                  
TALLULAH/VBURG CLOUDY    62  60  93 VRB6      29.64R                  
6HR MIN TEMP:  61; 6HR MAX TEMP:  63; 6HR PCP:  1.88;                

VIDALIA        MOCLDY    63  61  92 SW6       29.63F                  
$$